Weather History for New Haven, CT

Change the Weather History Date:

Wednesday, January 8, 2014

  Actual Average Record
Temperature  
Mean Temperature 16 °F -  
Max Temperature 23 °F 36 °F 57 °F (1998)
Min Temperature 9 °F 24 °F 6 °F (2015)
Degree Days  
Heating Degree Days 49    
Moisture  
Dew Point -1 °F    
Average Humidity 48    
Maximum Humidity 56    
Minimum Humidity 38    
Precipitation  
Precipitation 0.00 in - - ()
Sea Level Pressure  
Sea Level Pressure 30.46 in    
Wind  
Wind Speed 7 mph (West)    
Max Wind Speed 9 mph    
Max Gust Speed 20 mph    
Visibility 10 miles    
Events      
Averages and records for this station are not official NWS values.
T = Trace of Precipitation, MM = Missing Value Source: NWS Daily Summary

Daily Weather History Graph

Daily Weather History Graph

Search for Another Location

Airport:

Trip Planner

Search our weather history database for the weather conditions in past years. The results will help you decide how hot, cold, wet, or windy it might be!

Date:

Astronomy

Jan. 08, 2014 Rise Set
Actual Time 7:17 AM EST 4:39 PM EST
Civil Twilight 6:46 AM EST 5:10 PM EST
Nautical Twilight 6:11 AM EST 5:45 PM EST
Astronomical Twilight 5:38 AM EST 6:18 PM EST
Moon 11:32 AM EST (1/8) 12:17 AM EST (1/8)
Length of Visible Light 10h 24m
Length of Day
9h 22m
First Quarter, 56% of the Moon is Illuminated
Jan 8
First Quarter
Jan 15
Full
Jan 24
Last Quarter
Jan 30
New
Feb 6
First Quarter

Hourly Weather History & Observations

Time (EST) Temp. Windchill Dew Point Humidity Pressure Visibility Wind Dir Wind Speed Gust Speed Precip Events Conditions
12:53 AM 10.0 °F -2.9 °F -5.1 °F 51% 30.36 in 10.0 mi West 9.2 mph 19.6 mph N/A   Clear
1:53 AM 10.0 °F -2.9 °F -5.1 °F 51% 30.38 in 10.0 mi West 9.2 mph 17.3 mph N/A   Clear
2:53 AM 10.0 °F -1.9 °F -5.1 °F 51% 30.40 in 10.0 mi West 8.1 mph - N/A   Clear
3:53 AM 9.0 °F -4.2 °F -5.1 °F 53% 30.40 in 10.0 mi West 9.2 mph 17.3 mph N/A   Clear
4:53 AM 9.0 °F -3.2 °F -5.1 °F 53% 30.42 in 10.0 mi West 8.1 mph - N/A   Clear
5:53 AM 9.0 °F -4.2 °F -5.1 °F 53% 30.43 in 10.0 mi West 9.2 mph - N/A   Clear
6:53 AM 9.0 °F -0.9 °F -5.1 °F 53% 30.44 in 10.0 mi Variable 5.8 mph - N/A   Clear
7:53 AM 9.0 °F -2.2 °F -4.0 °F 56% 30.48 in 10.0 mi Variable 6.9 mph - N/A   Partly Cloudy
8:53 AM 10.9 °F 2.9 °F -2.9 °F 54% 30.52 in 10.0 mi Variable 4.6 mph - N/A   Scattered Clouds
9:53 AM 12.9 °F - -4.0 °F 47% 30.53 in 10.0 mi Calm Calm - N/A   Scattered Clouds
10:53 AM 15.1 °F 7.7 °F -2.0 °F 47% 30.52 in 10.0 mi WSW 4.6 mph - N/A   Scattered Clouds
11:53 AM 17.1 °F 11.7 °F -0.9 °F 45% 30.46 in 10.0 mi Variable 3.5 mph - N/A   Clear
12:53 PM 19.9 °F 12.1 °F -0.9 °F 40% 30.44 in 10.0 mi NW 5.8 mph - N/A   Partly Cloudy
1:53 PM 21.0 °F 16.2 °F -0.9 °F 38% 30.43 in 10.0 mi WSW 3.5 mph - N/A   Clear
2:53 PM 23.0 °F 13.9 °F 1.9 °F 40% 30.44 in 10.0 mi WSW 8.1 mph - N/A   Clear
3:53 PM 21.9 °F 15.7 °F 1.0 °F 40% 30.44 in 10.0 mi Variable 4.6 mph - N/A   Clear
4:53 PM 21.9 °F 15.7 °F 1.9 °F 42% 30.45 in 10.0 mi West 4.6 mph - N/A   Partly Cloudy
5:53 PM 21.0 °F 14.6 °F 1.9 °F 44% 30.47 in 10.0 mi West 4.6 mph - N/A   Partly Cloudy
6:53 PM 21.0 °F 14.6 °F 3.0 °F 46% 30.48 in 10.0 mi Variable 4.6 mph - N/A   Partly Cloudy
7:53 PM 21.0 °F 14.6 °F 3.9 °F 48% 30.48 in 10.0 mi West 4.6 mph - N/A   Partly Cloudy
8:53 PM 21.0 °F 10.6 °F 5.0 °F 50% 30.49 in 10.0 mi WSW 9.2 mph - N/A   Scattered Clouds
9:53 PM 19.9 °F 10.1 °F 5.0 °F 52% 30.50 in 10.0 mi WSW 8.1 mph - N/A   Scattered Clouds
10:53 PM 19.9 °F 12.1 °F 3.9 °F 50% 30.49 in 10.0 mi West 5.8 mph - N/A   Mostly Cloudy
11:53 PM 19.9 °F 10.1 °F 3.9 °F 50% 30.48 in 10.0 mi West 8.1 mph - N/A   Mostly Cloudy